Flag for Mexico Weather past 2 weeks in Matamoros, Tamaulipas, Mexico

Now
66 °F

Clear.


Feels Like: 66 °F
Forecast: 65 / 84 °F
Wind: 3 mph from Northwest

Location: Brownsville / South Padre Island International Airport

Current Time: Oct 25, 2014 at 5:26:10 AM

Latest Report: Oct 25, 2014 at 4:53 AM


Visibility: 8 mi

Pressure: 30.11 "Hg

Humidity: 93%

Dew point: 64 °F

Location of MatamorosLocation

Historic Weather in Matamoros — Graph

°F

Matamoros temperature yesterday

Maximum temperature yesterday: 85 °F (at 12:53 PM)
Minimum temperature yesterday: 67 °F (at 2:53 AM)
Average temperature yesterday: 75 °F

Past Weeks' High & Low Weather Summary

 TemperatureHumidityPressure
High91 °F (Oct 13, 3:53 PM)97% (Oct 18, 5:53 AM)30.16 "Hg (Oct 18, 5:53 AM)
Low57 °F (Oct 15, 3:53 AM)26% (Oct 15, 2:53 PM)29.74 "Hg (Oct 13, 4:53 AM)
Average77 °F74%29.96 "Hg
* Reported Oct 10 3:53 AM — Oct 25 3:53 AM, Matamoros, Weather by CustomWeather, © 2014

Note: Actual official high and low records may vary slightly from our data, if they occured in-between our weather recording intervals... More about our weather records

Advertising

Matamoros weather history for previous 24 hours

 ConditionsComfort  
Time TempWeatherWind HumidityBarometerVisibility
3:53 AM
Oct 25
66 °FClear.3 mph96%30.11 "Hg8 mi
2:53 AM67 °FClear.3 mph93%30.11 "Hg9 mi
1:53 AM67 °FClear.No wind93%30.12 "Hg9 mi
12:53 AM67 °FClear.No wind93%30.13 "Hg8 mi
11:53 PM
Oct 24
69 °FClear.3 mph90%30.13 "Hg9 mi
10:53 PM69 °FClear.No wind90%30.13 "Hg10 mi
9:53 PM72 °FClear.3 mph81%30.12 "Hg10 mi
8:53 PM72 °FClear.No wind81%30.11 "Hg9 mi
7:53 PM73 °FSunny.3 mph76%30.09 "Hg10 mi
6:53 PM76 °FSunny.7 mph67%30.08 "Hg10 mi
5:53 PM80 °FSunny.10 mph60%30.07 "Hg10 mi
4:53 PM82 °FSunny.8 mph56%30.06 "Hg10 mi
3:53 PM84 °FSunny.10 mph51%30.06 "Hg10 mi
2:53 PM84 °FSunny.9 mph53%30.07 "Hg10 mi
1:53 PM85 °FSunny.10 mph50%30.09 "Hg10 mi
12:53 PM85 °FPassing clouds.8 mph50%30.12 "Hg10 mi
11:53 AM83 °FSunny.7 mph53%30.14 "Hg10 mi
10:53 AM82 °FSunny.7 mph58%30.14 "Hg10 mi
9:53 AM78 °FSunny.8 mph71%30.13 "Hg10 mi
8:53 AM74 °FSunny.5 mph82%30.11 "Hg8 mi
7:53 AM70 °FFog.6 mph90%30.09 "Hg6 mi
6:53 AM68 °FClear.5 mph93%30.07 "Hg8 mi
5:53 AM68 °FPassing clouds.6 mph93%30.05 "Hg7 mi
Weather by CustomWeather, © 2014

See weather overviewHow to use our weather pages